Total_Precipitation_Accumulation
0.55 0.88 1.16 1.03 1.05 1.11 0.94 0.96 1.03 1.01 0.84 0.95 1.04 1.01 1.07 1.06 1.02 0.87 0.77 0.69 0.70 0.69 0.70 0.66 0.61 0.66 0.66 0.60 0.58 0.63 0.76 0.91 1.06 1.18 1.30 1.53 1.68 1.78 1.78 1.77 1.81 1.71 1.51 1.57
0.74 0.86 0.68 0.65 0.73 0.84 0.87 0.92 0.97 0.91 0.75 0.84 0.91 0.94 0.98 0.92 0.85 0.70 0.63 0.60 0.56 0.54 0.57 0.56 0.48 0.46 0.49 0.51 0.53 0.58 0.72 0.95 1.16 1.36 1.53 1.70 2.02 2.18 2.17 2.23 2.13 2.05 1.92 1.93
0.68 0.62 0.50 0.58 0.69 0.79 0.81 0.80 0.84 0.83 0.86 0.86 0.86 1.00 1.03 0.97 0.81 0.64 0.54 0.49 0.46 0.42 0.46 0.47 0.41 0.37 0.34 0.38 0.44 0.52 0.62 0.84 1.15 1.44 1.67 1.85 2.08 2.34 2.45 2.34 2.28 2.27 2.31 2.34
0.59 0.49 0.47 0.57 0.61 0.68 0.90 0.58 0.56 0.62 0.79 1.02 0.85 1.17 1.03 0.93 0.83 0.67 0.58 0.51 0.46 0.44 0.44 0.42 0.39 0.38 0.35 0.38 0.43 0.53 0.62 0.77 0.98 1.24 1.55 1.81 2.08 2.39 2.45 2.40 2.38 2.41 2.47 2.51
0.58 0.51 0.52 0.60 0.53 0.55 0.69 0.45 0.47 0.60 0.65 0.71 0.65 0.90 0.94 0.77 0.85 0.76 0.66 0.57 0.49 0.46 0.46 0.41 0.40 0.39 0.42 0.44 0.49 0.60 0.71 0.82 0.99 1.24 1.55 1.85 2.04 2.23 2.41 2.41 2.31 2.24 2.31 2.28
0.53 0.45 0.45 0.47 0.40 0.43 0.51 0.52 0.54 0.59 0.67 0.80 0.52 0.69 0.89 0.79 0.76 0.72 0.66 0.62 0.52 0.43 0.46 0.48 0.51 0.50 0.49 0.53 0.63 0.76 0.85 1.00 1.13 1.22 1.33 1.47 1.68 1.97 2.13 2.26 2.25 2.24 2.24 2.13
0.52 0.44 0.33 0.31 0.45 0.46 0.51 0.77 1.02 1.00 0.98 0.85 0.42 0.61 0.81 0.66 0.58 0.59 0.58 0.58 0.56 0.52 0.56 0.64 0.71 0.67 0.63 0.66 0.79 0.90 0.98 1.03 1.08 1.05 1.06 1.17 1.34 1.57 1.72 1.83 2.00 2.06 2.11 2.08
0.53 0.49 0.34 0.28 0.35 0.49 0.49 0.65 1.04 1.13 0.97 0.79 0.63 0.84 0.87 0.60 0.51 0.51 0.53 0.52 0.53 0.60 0.68 0.83 0.93 0.94 0.87 0.87 0.91 0.92 0.98 0.93 0.93 0.95 0.97 1.04 1.10 1.25 1.36 1.44 1.59 1.70 1.70 1.69
0.51 0.45 0.24 0.21 0.21 0.31 0.45 0.42 0.44 0.66 0.67 0.77 0.77 0.87 0.81 0.55 0.46 0.49 0.53 0.55 0.57 0.70 0.82 0.99 1.16 1.19 1.10 1.03 0.97 0.98 1.05 0.99 0.91 0.94 1.02 1.04 1.06 1.05 1.05 1.11 1.11 1.19 1.26 1.28
0.41 0.43 0.27 0.20 0.22 0.24 0.31 0.35 0.45 0.74 0.99 1.06 0.90 0.94 0.99 0.71 0.54 0.55 0.63 0.74 0.84 0.98 1.03 1.17 1.29 1.29 1.25 1.27 1.22 1.07 1.07 1.10 1.02 1.10 1.12 1.04 1.01 0.96 0.96 1.00 1.02 1.03 1.11 1.19
0.36 0.46 0.34 0.25 0.29 0.30 0.29 0.36 0.52 0.77 0.86 1.17 1.34 1.30 0.91 0.72 0.69 0.69 0.76 1.04 1.13 1.19 1.25 1.27 1.35 1.34 1.23 1.21 1.18 1.17 1.13 1.12 1.13 1.14 1.14 1.01 0.99 1.01 1.00 0.98 0.99 1.05 1.12 1.22
0.40 0.52 0.44 0.27 0.24 0.28 0.40 0.53 0.71 1.11 1.10 1.03 1.41 1.47 0.94 0.77 0.80 0.81 0.82 0.88 0.95 1.16 1.24 1.24 1.32 1.27 1.15 1.12 1.02 1.07 1.14 1.14 1.21 1.23 1.14 1.05 1.09 1.11 1.13 1.09 1.04 1.07 1.10 1.09
0.52 0.69 0.71 0.55 0.52 0.49 0.53 0.61 0.75 0.96 1.16 1.20 1.36 1.37 0.96 0.73 0.72 0.78 0.85 0.84 0.90 1.00 1.01 0.96 1.01 1.09 1.06 1.04 0.97 1.05 1.13 1.18 1.20 1.25 1.25 1.12 1.02 1.04 1.06 1.06 0.99 0.96 0.97 1.00
0.50 0.66 0.79 0.80 0.72 0.63 0.57 0.51 0.57 0.83 1.14 1.17 1.20 1.13 0.86 0.72 0.70 0.73 0.77 0.82 0.80 0.79 0.79 0.73 0.71 0.79 0.80 0.83 0.90 0.97 1.11 1.27 1.29 1.30 1.26 1.20 1.13 1.15 1.07 0.99 0.95 0.92 0.88 0.82
0.43 0.44 0.39 0.33 0.31 0.35 0.42 0.44 0.53 0.68 0.85 1.09 0.98 0.77 0.65 0.63 0.59 0.61 0.67 0.60 0.56 0.56 0.57 0.58 0.56 0.58 0.60 0.64 0.73 0.80 0.91 1.12 1.25 1.35 1.34 1.25 1.18 1.09 1.01 0.92 0.85 0.85 0.76 0.71
0.46 0.40 0.25 0.19 0.20 0.25 0.35 0.47 0.61 0.68 0.74 0.76 0.67 0.63 0.49 0.46 0.42 0.42 0.48 0.48 0.49 0.45 0.40 0.41 0.45 0.47 0.52 0.56 0.64 0.65 0.75 0.92 1.05 1.13 1.17 1.23 1.20 1.04 0.92 0.82 0.75 0.72 0.70 0.70
0.33 0.33 0.29 0.22 0.18 0.29 0.50 0.58 0.66 0.66 0.61 0.53 0.50 0.45 0.32 0.29 0.26 0.26 0.32 0.36 0.42 0.41 0.36 0.34 0.35 0.39 0.47 0.55 0.58 0.63 0.74 0.87 0.91 0.98 1.01 1.05 1.05 0.90 0.83 0.73 0.66 0.64 0.64 0.67
0.31 0.35 0.42 0.32 0.27 0.51 0.70 0.56 0.51 0.57 0.47 0.33 0.30 0.29 0.26 0.21 0.18 0.17 0.17 0.20 0.23 0.26 0.27 0.32 0.30 0.31 0.35 0.42 0.53 0.67 0.72 0.73 0.74 0.81 0.84 0.83 0.84 0.80 0.74 0.63 0.60 0.61 0.64 0.68
0.31 0.42 0.53 0.48 0.45 0.56 0.62 0.43 0.42 0.50 0.48 0.27 0.21 0.20 0.17 0.16 0.14 0.12 0.12 0.13 0.14 0.15 0.18 0.23 0.23 0.23 0.25 0.27 0.30 0.37 0.43 0.48 0.51 0.62 0.69 0.72 0.74 0.71 0.67 0.61 0.68 0.72 0.70 0.70
0.43 0.51 0.59 0.56 0.64 0.71 0.48 0.22 0.21 0.37 0.56 0.25 0.14 0.13 0.11 0.12 0.15 0.14 0.12 0.13 0.12 0.10 0.11 0.14 0.18 0.18 0.17 0.18 0.19 0.23 0.29 0.34 0.38 0.45 0.51 0.58 0.65 0.68 0.71 0.82 0.89 0.90 0.85 0.76
0.36 0.44 0.55 0.61 0.81 0.75 0.44 0.21 0.22 0.43 0.58 0.29 0.14 0.11 0.13 0.14 0.14 0.12 0.13 0.13 0.11 0.10 0.09 0.11 0.13 0.14 0.16 0.17 0.16 0.20 0.25 0.27 0.29 0.29 0.35 0.46 0.62 0.71 0.80 0.94 0.96 0.93 0.87 0.76
0.39 0.51 0.62 0.75 0.97 0.99 0.50 0.29 0.35 0.35 0.23 0.18 0.13 0.11 0.11 0.11 0.12 0.13 0.13 0.12 0.12 0.12 0.10 0.09 0.10 0.11 0.14 0.17 0.16 0.18 0.26 0.28 0.32 0.33 0.34 0.40 0.52 0.67 0.83 0.95 0.93 0.92 0.91 0.83
0.34 0.60 0.84 0.83 0.83 0.65 0.39 0.29 0.23 0.17 0.17 0.11 0.10 0.11 0.12 0.11 0.11 0.11 0.11 0.11 0.11 0.12 0.11 0.10 0.11 0.11 0.12 0.14 0.17 0.19 0.22 0.26 0.28 0.31 0.29 0.30 0.38 0.53 0.71 0.80 0.82 0.83 0.85 0.81
0.20 0.28 0.45 0.43 0.32 0.25 0.21 0.19 0.14 0.11 0.11 0.08 0.07 0.07 0.12 0.14 0.14 0.11 0.10 0.10 0.11 0.10 0.09 0.09 0.11 0.12 0.12 0.14 0.17 0.21 0.25 0.25 0.25 0.27 0.28 0.28 0.28 0.33 0.43 0.52 0.58 0.66 0.70 0.70
0.19 0.24 0.34 0.33 0.20 0.15 0.15 0.15 0.12 0.10 0.10 0.08 0.08 0.07 0.09 0.12 0.13 0.10 0.11 0.09 0.10 0.10 0.11 0.10 0.12 0.14 0.14 0.16 0.17 0.19 0.23 0.26 0.26 0.27 0.29 0.30 0.33 0.36 0.39 0.42 0.45 0.50 0.53 0.62
0.13 0.20 0.28 0.30 0.21 0.16 0.13 0.13 0.14 0.12 0.10 0.10 0.10 0.11 0.12 0.13 0.14 0.12 0.11 0.10 0.10 0.11 0.12 0.14 0.15 0.17 0.16 0.17 0.18 0.17 0.19 0.21 0.23 0.25 0.26 0.25 0.28 0.32 0.34 0.38 0.41 0.45 0.45 0.53